sat.trackr.live / text

‹ back to catalog

STARLINK-11579 [DTC]

NORAD 63143 · 2025-043M

PAYLOAD ACTIVE UNKNOWN

§ Identity

Operator
Country
US
Launch date
2025-03-03
Launch site
AFETR
Launch vehicle
Mass (kg)
RCS (m²)

Purposes: comms

External: N2YO · Heavens-Above · Gunter

§ Orbital elements

Epoch: 2026-09-20T17:57:38.514816Z

Period
91.67 min
Inclination
42.9998°
Eccentricity
0.0002138
Mean motion
15.70881769 rev/d
Perigee alt
354.9 km
Apogee alt
357.8 km
Semi-major
6,734.5 km
B*
1.1569e-3
RAAN
154.6201°
Arg perigee
263.7543°
Mean anomaly
96.3081°
Rev number
9,003

§ Raw data

STARLINK-11579 [DTC]1 63143U 25043M   26263.74836244  .00150989  00000+0  11569-2 0  99932 63143  42.9998 154.6201 0002138 263.7543  96.3081 15.70881769 90034

JSON: /api/v1/satellites/63143 · /tle

For live sub-satellite position, see the globe view (requires WebGL).

§ Visibility from observer

Set your observer location to see the next 7 days of passes ≥ 10°. The values pass through the URL so the page stays shareable.

No JS? Fill the form by hand. The geolocation button needs JavaScript.